RH
22 22 21 21 20 19 18 17 16 15 14 13 12 10 9 8 8 7 7 7 6 7 7 7 8 8 8 8 8 8 8 8 7 6 5 5 5 5 5 5 5 6 7 10 13 22 36 45 43 42 43 45 46 47 51 54 54 55 61 65 64 63 62 59 53 48 46 45 46 49 48 46 46 43 43 42 42 47 51 54 58 59 59 60 61 59 62 63
23 23 22 22 22 21 21 19 18 17 16 15 14 13 11 10 9 8 7 7 7 6 6 7 7 7 7 7 7 8 8 8 8 6 7 7 5 5 4 5 5 6 6 8 10 15 30 44 44 43 46 47 45 46 50 53 55 54 59 64 63 62 63 61 56 51 48 47 46 48 48 47 47 45 43 39 38 43 45 48 53 58 60 62 62 60 62 63
25 24 24 23 23 22 22 21 20 19 18 17 16 15 14 13 11 9 8 7 7 6 6 6 6 7 7 7 7 7 8 8 8 7 7 6 6 5 5 5 4 5 6 7 9 10 21 34 39 43 46 45 44 46 48 52 54 54 58 63 62 61 63 63 59 53 49 47 46 47 48 48 48 47 44 40 38 40 40 43 48 53 60 63 64 62 63 64
26 25 25 24 24 23 22 22 22 21 20 18 17 16 15 14 13 12 10 9 8 7 6 6 6 6 6 6 7 7 7 7 7 7 8 7 7 7 5 5 4 5 5 6 8 10 15 26 34 40 43 41 44 45 46 51 53 55 59 62 61 60 62 63 60 55 50 47 47 47 48 48 50 48 45 41 40 40 39 42 43 46 55 63 65 64 63 64
26 26 25 25 24 23 23 22 21 21 20 20 19 17 16 15 14 13 13 11 9 8 7 7 6 5 5 6 7 7 7 8 7 8 9 9 8 6 6 5 5 4 5 5 8 12 16 24 34 38 38 38 43 45 45 49 51 53 57 60 62 61 62 62 60 57 52 49 49 49 47 47 49 48 46 43 39 40 40 41 41 41 46 52 59 64 64 64
27 26 26 25 24 23 22 22 21 20 20 20 19 18 17 16 15 14 14 13 11 10 8 7 7 6 5 5 6 7 7 8 7 8 10 10 8 7 7 6 6 5 4 5 8 15 21 28 32 33 35 38 42 44 44 49 51 51 53 57 61 62 63 63 60 57 54 52 50 48 45 45 46 45 45 44 40 40 41 40 40 41 40 41 51 59 63 63
27 26 25 25 24 23 22 22 21 20 20 19 19 18 17 17 16 15 14 14 13 12 10 8 7 6 6 5 5 6 7 7 7 9 10 9 9 9 8 7 7 5 5 6 9 17 25 28 29 29 33 37 42 44 44 48 50 50 51 53 57 59 61 61 59 57 54 52 50 47 45 43 43 43 44 44 43 42 41 40 37 40 42 39 46 54 58 62
27 26 25 25 24 24 23 22 21 21 20 20 19 18 18 17 17 17 16 15 14 13 12 10 8 7 7 5 5 6 7 7 8 9 9 8 8 8 8 8 8 6 4 6 8 14 22 26 27 28 31 35 42 45 44 46 48 50 53 53 54 56 58 59 59 56 52 51 49 47 44 41 41 42 43 43 45 45 43 43 39 39 44 43 45 51 54 59
27 26 26 26 25 25 24 23 23 22 22 21 20 19 19 18 18 18 17 16 15 14 13 12 10 8 7 6 6 6 6 7 8 8 8 8 7 7 7 8 9 7 6 6 7 11 19 23 24 26 29 34 41 45 44 45 46 49 53 52 52 53 54 56 58 56 52 50 48 47 43 39 39 41 42 42 45 46 46 47 44 41 44 46 46 48 53 57
27 27 27 27 26 26 25 24 24 24 23 22 21 20 19 19 19 18 17 16 15 14 14 13 12 10 8 7 7 7 6 7 8 8 8 8 7 7 7 8 9 8 7 8 7 10 15 18 22 25 27 33 39 42 43 43 45 48 50 50 49 51 51 53 55 55 52 49 47 46 41 38 39 41 40 42 45 47 47 49 49 46 45 48 48 47 51 55
25 26 26 27 26 26 26 25 24 24 24 23 22 21 20 20 19 19 17 16 15 15 14 13 13 11 10 8 8 7 6 7 8 8 8 8 8 7 6 7 9 7 8 9 7 8 9 11 20 25 24 28 35 39 41 42 44 46 47 46 47 48 47 48 50 52 50 47 47 45 40 38 41 43 40 43 48 49 50 50 50 50 48 49 50 48 49 52
20 21 22 23 24 24 25 24 24 24 24 23 22 21 21 21 20 19 18 16 15 15 14 14 13 12 11 10 9 7 6 6 7 8 8 8 8 8 7 8 9 7 6 8 7 7 8 10 18 24 21 23 29 32 36 39 41 42 43 44 44 44 45 45 47 50 49 46 46 46 41 40 43 44 42 43 49 53 53 50 50 50 50 50 51 49 47 49
15 16 17 18 19 20 21 22 23 23 23 23 23 22 22 21 20 19 18 17 16 15 14 14 14 13 12 11 8 7 8 7 8 8 8 8 8 9 9 9 9 7 6 6 7 8 9 10 16 21 20 21 24 26 30 34 35 37 38 40 41 42 42 45 47 49 49 46 46 46 40 40 42 42 42 44 49 55 54 50 48 49 50 51 51 50 48 47
12 12 13 13 14 15 16 18 19 21 22 23 23 22 22 21 20 19 19 19 18 17 15 14 14 13 13 11 8 7 7 8 8 8 8 8 8 9 9 10 9 8 8 9 10 10 11 13 16 20 20 19 21 22 26 30 32 34 35 37 39 40 43 45 46 48 48 47 47 46 39 37 39 40 43 46 50 53 51 50 50 48 48 50 51 50 49 47
11 11 11 11 11 11 12 14 15 16 19 22 22 22 22 21 20 20 21 21 21 20 17 16 14 14 15 13 9 9 8 8 8 8 8 9 9 9 9 11 10 9 11 13 14 14 16 20 21 21 20 19 20 20 22 26 29 32 35 39 38 38 43 45 45 46 47 47 47 44 38 37 37 37 43 47 49 50 48 49 51 49 48 49 50 51 49 47
11 11 11 10 10 10 10 11 12 13 15 19 20 21 21 21 22 24 24 24 23 21 19 17 14 15 16 15 12 11 10 9 8 8 9 9 9 10 10 12 13 11 12 15 15 16 18 22 22 20 18 18 19 19 20 22 25 29 34 39 38 39 44 46 44 44 45 45 46 42 37 36 35 35 42 47 49 49 47 49 52 53 51 49 50 51 49 47
12 12 11 11 10 9 9 9 10 10 13 16 17 18 20 22 24 25 26 26 25 23 21 19 17 17 16 14 13 13 11 10 9 9 9 9 9 10 11 13 14 14 14 15 16 17 20 19 18 18 16 16 16 16 19 21 21 24 29 35 38 41 45 45 42 43 43 41 42 41 36 35 35 36 42 47 50 50 48 50 53 55 54 52 50 50 50 48
11 11 11 11 11 10 9 9 9 9 13 15 15 17 19 21 23 27 29 29 28 27 25 24 24 21 17 14 14 14 13 12 10 10 10 10 9 11 11 12 15 16 17 16 15 17 19 17 16 16 15 14 14 15 17 19 20 20 24 32 37 40 43 42 41 42 41 38 38 39 36 33 34 37 42 47 50 52 50 52 55 56 57 55 51 50 50 48
9 10 10 11 11 10 9 10 9 9 13 14 13 16 17 19 22 27 31 30 29 28 26 27 26 21 17 16 15 14 14 14 12 12 12 11 10 12 13 12 16 18 17 16 15 16 17 16 16 15 14 13 12 13 15 16 19 20 22 29 36 41 43 41 41 40 39 37 36 37 36 32 32 36 41 45 50 52 52 54 56 57 57 56 53 51 49 48
9 9 9 9 10 9 10 10 9 10 13 12 13 14 15 17 18 22 26 25 25 25 24 25 24 21 20 19 17 15 14 14 13 12 13 13 12 13 15 16 18 19 17 16 15 15 15 15 15 13 12 11 11 12 13 14 17 20 22 25 32 39 41 41 42 41 38 36 34 36 36 32 32 35 38 42 46 50 52 55 57 57 57 55 54 51 49 49
10 10 9 9 8 8 9 9 9 11 12 11 13 13 15 18 17 19 23 21 20 22 22 22 22 22 22 21 20 18 16 14 13 12 13 14 13 14 16 18 18 18 17 16 16 15 15 15 13 11 9 9 10 11 12 13 15 19 21 24 28 33 37 41 43 43 41 37 33 34 35 33 32 32 35 40 44 47 50 53 56 58 58 56 54 51 50 50
10 10 9 9 8 7 8 8 9 10 10 11 14 14 16 18 18 20 23 21 20 21 21 21 21 22 22 21 21 20 19 17 14 13 14 15 14 14 15 16 17 17 17 16 17 17 16 14 12 10 9 9 10 10 11 12 13 15 18 21 25 28 32 38 43 44 43 38 33 34 34 34 32 31 33 39 43 46 47 50 55 57 56 55 54 52 51 50
10 10 10 10 9 7 7 7 8 9 8 10 14 15 16 17 17 18 21 21 20 19 19 20 21 21 21 22 21 21 20 19 16 13 14 15 14 13 13 14 15 17 17 16 17 18 17 14 11 10 10 10 10 10 10 11 12 13 15 18 19 22 29 35 40 41 39 35 31 33 33 33 33 32 34 39 42 44 45 47 50 52 52 52 52 52 52 51
9 9 9 9 9 8 7 7 8 8 8 11 14 15 15 17 16 17 21 20 17 16 17 18 20 21 21 22 21 21 21 20 18 15 14 15 15 14 13 13 14 16 17 16 15 17 16 13 12 11 11 10 11 11 11 11 12 12 13 15 16 19 25 30 37 38 36 32 30 32 34 33 34 32 32 39 41 42 44 44 45 46 48 50 50 51 54 53
8 8 8 9 9 7 7 7 7 8 11 13 14 14 14 16 15 17 22 20 15 15 16 16 19 20 21 21 21 21 22 21 19 16 14 15 15 14 13 13 14 14 15 16 16 16 15 13 14 14 13 12 12 11 11 11 13 13 11 12 15 19 22 26 34 37 35 33 31 33 36 34 35 33 32 38 40 40 43 43 44 44 44 47 48 50 54 54
9 8 8 8 8 6 6 7 7 9 12 13 13 12 13 14 15 18 22 19 15 13 13 15 17 18 19 21 22 23 23 21 19 18 15 15 16 15 14 13 13 13 13 15 16 16 14 14 15 15 14 13 13 13 10 10 13 14 11 10 13 17 20 24 32 37 35 33 33 34 33 32 34 34 33 36 39 39 40 43 45 43 42 45 46 48 53 53
10 10 9 9 8 7 7 8 8 9 13 13 11 11 13 13 15 19 20 20 19 14 14 16 16 16 17 19 21 22 22 21 20 19 17 16 16 15 14 13 12 13 13 15 16 15 13 13 15 16 15 14 14 13 11 10 13 14 11 9 10 13 18 23 30 35 33 31 31 31 30 29 30 32 33 35 37 38 38 42 45 43 42 44 46 47 50 52
11 11 11 10 9 9 9 10 11 11 13 13 10 11 12 12 15 19 20 20 19 16 15 16 16 16 17 18 20 21 21 21 20 20 18 18 17 16 15 14 13 12 13 14 15 13 12 12 13 14 16 16 13 12 10 10 13 14 11 9 11 12 16 22 27 30 29 27 27 27 28 28 27 30 34 35 35 36 36 40 43 42 42 44 47 48 48 50
11 11 12 11 10 11 11 12 14 13 13 11 10 11 12 13 16 19 21 19 16 15 15 15 15 16 18 19 20 21 21 20 19 20 21 20 19 17 16 15 14 13 13 12 13 13 12 12 11 12 15 14 11 11 10 11 12 12 11 11 12 12 15 20 22 22 24 24 23 25 27 27 24 26 32 34 34 33 34 38 41 40 41 42 44 48 48 49
11 11 12 12 11 12 11 13 15 14 14 13 11 11 12 14 17 20 23 19 15 16 15 15 15 16 18 19 19 20 21 20 19 20 22 21 21 19 17 16 16 16 15 13 13 13 12 13 13 14 14 11 10 12 12 12 12 11 12 13 13 14 15 17 19 20 21 21 20 22 25 26 23 22 26 30 31 31 33 37 39 39 39 41 43 46 47 46
10 10 11 13 15 15 13 13 14 15 15 14 13 13 14 17 18 22 24 16 13 17 16 16 17 16 17 18 18 19 21 21 19 20 22 22 21 20 19 19 18 19 18 15 14 14 13 14 15 14 13 12 12 13 13 13 13 12 13 13 14 15 16 16 18 19 20 20 19 19 22 24 22 20 21 24 26 29 31 34 37 38 39 41 43 44 43 43
10 10 11 14 17 15 15 14 14 15 15 15 17 16 17 21 21 21 19 13 14 17 17 17 17 18 18 18 17 18 20 20 18 19 21 21 22 21 19 20 20 20 21 18 16 15 14 14 15 13 13 13 13 15 15 15 14 13 13 13 15 16 16 17 18 18 19 19 17 16 19 21 20 19 20 20 23 26 29 31 34 36 38 41 43 42 41 42
11 10 10 14 15 14 14 14 14 15 13 15 18 16 19 25 24 20 14 13 17 19 18 19 18 19 20 19 19 18 18 19 19 20 21 21 23 22 21 21 21 21 21 19 18 17 16 15 14 15 14 13 13 15 16 16 14 13 13 13 14 15 17 17 16 16 17 16 15 15 17 19 18 18 18 18 20 24 28 31 33 34 37 39 41 41 41 41
12 11 10 14 15 12 12 11 12 13 11 14 17 16 22 27 24 21 18 16 17 18 18 20 20 20 20 20 21 20 19 19 20 20 21 22 23 23 23 23 22 22 21 20 20 19 19 18 15 14 14 13 13 13 13 14 14 14 13 12 13 13 14 14 14 14 15 15 15 15 15 16 16 18 19 18 19 22 27 31 32 33 35 36 39 40 39 40
12 10 11 15 15 12 12 11 10 11 11 14 16 18 25 28 23 23 25 23 20 19 19 19 21 22 21 21 22 22 20 20 20 21 21 22 24 25 25 25 24 24 21 21 21 19 19 18 15 13 13 13 13 13 13 14 16 15 13 13 13 13 12 12 12 13 13 14 15 15 15 14 13 15 17 18 19 21 25 29 32 34 35 36 37 37 37 38
11 10 12 16 14 12 12 11 10 10 12 14 16 21 24 23 22 26 29 28 26 25 22 19 20 22 23 23 24 24 23 22 21 21 21 22 25 27 28 27 27 26 24 22 20 20 20 18 16 15 15 14 13 13 14 14 16 16 15 14 12 11 11 11 13 14 13 13 14 15 14 12 12 12 12 14 18 20 23 28 31 33 34 35 35 35 36 36
14 12 13 16 15 14 14 12 11 12 14 15 18 23 23 21 23 27 31 31 30 28 27 24 22 22 25 27 26 27 26 24 23 22 21 23 25 28 30 28 28 27 26 25 21 19 20 19 17 17 16 15 14 15 15 15 15 15 15 13 12 12 12 12 13 14 13 13 13 13 12 12 12 11 11 12 14 18 23 26 29 31 33 33 33 34 35 35
18 14 15 17 17 17 17 16 15 16 19 18 20 23 25 25 27 28 31 32 31 31 31 29 25 23 27 30 30 30 28 26 25 24 23 25 26 28 29 29 28 26 27 27 24 20 20 19 17 17 16 16 15 17 18 17 15 14 14 13 14 15 14 14 15 14 13 12 13 12 12 11 11 10 10 12 13 15 19 24 26 28 30 31 32 34 35 35
21 17 17 20 20 20 22 22 21 22 22 22 26 30 31 32 32 31 33 33 32 33 34 32 29 27 28 31 33 33 31 30 29 27 26 27 29 28 28 29 29 27 27 28 26 23 20 20 19 17 16 17 17 18 19 18 17 15 14 14 15 15 15 15 14 12 12 12 12 12 12 10 9 8 8 9 11 13 15 19 21 21 24 27 29 31 33 34
25 24 23 24 24 24 25 26 25 27 28 30 38 42 39 37 34 33 35 36 33 35 37 36 35 34 32 32 34 35 35 34 32 31 30 30 31 30 28 29 30 29 29 28 27 26 23 21 21 18 17 18 18 18 18 17 16 15 15 15 15 14 15 15 14 12 11 12 12 12 11 9 8 7 6 6 9 11 12 14 16 16 17 21 24 26 29 31
32 31 29 28 28 27 27 26 26 30 33 36 42 44 44 44 40 35 35 38 38 36 38 39 38 38 37 35 35 36 37 37 36 35 35 33 32 33 31 30 30 31 31 30 28 28 26 24 22 20 18 18 18 17 16 16 15 15 14 14 13 13 14 16 16 14 11 11 12 12 10 8 7 8 7 6 7 8 9 11 12 13 14 17 19 20 23 28
39 36 31 32 32 29 28 30 34 37 40 42 44 44 45 48 48 43 39 41 42 39 38 39 38 38 39 37 36 36 38 40 40 39 39 37 35 35 33 32 31 32 33 33 30 29 30 28 25 22 20 19 18 17 16 15 16 15 15 15 14 13 14 15 16 15 12 12 13 12 11 9 9 10 8 7 7 7 8 9 10 10 11 14 16 17 21 26
47 42 35 34 35 33 33 38 42 43 44 47 48 46 46 50 54 54 51 47 45 42 40 39 38 37 39 40 39 38 39 41 43 42 42 41 38 36 35 34 32 32 34 36 33 30 32 32 29 26 24 21 19 19 18 16 16 16 16 16 15 15 14 13 15 15 14 14 13 13 13 10 10 12 11 9 9 8 8 9 10 10 10 10 13 15 18 22
52 48 42 38 38 40 42 46 50 49 47 47 47 46 47 52 57 63 63 57 52 50 47 44 42 39 39 40 40 39 40 43 45 45 43 43 41 38 37 36 35 34 34 37 35 32 33 34 32 29 29 27 24 22 20 18 18 19 19 18 17 17 15 14 16 18 16 15 14 13 13 11 11 14 13 11 11 10 9 10 10 10 10 9 10 11 14 17
52 50 48 46 47 49 50 52 56 55 52 52 52 48 48 55 63 66 67 64 59 58 56 53 49 45 41 40 40 39 38 41 47 47 45 44 42 40 39 38 38 36 34 36 36 34 35 37 35 32 31 31 30 27 24 23 22 22 21 21 20 18 17 16 17 19 18 17 15 13 13 12 11 13 13 11 11 11 10 10 10 11 10 9 8 8 11 14
54 52 52 54 56 57 56 57 60 59 57 57 58 57 55 60 69 71 68 66 65 61 59 58 55 51 47 44 42 41 38 38 44 47 47 47 44 42 41 40 40 40 37 35 35 35 37 38 37 36 34 33 34 33 30 27 26 25 23 22 22 21 20 18 17 18 20 19 17 13 13 13 11 11 13 12 11 12 11 11 11 11 10 9 9 8 9 10
60 59 59 61 62 61 60 61 63 62 62 61 64 69 67 64 72 79 75 72 72 67 61 60 59 56 55 52 48 46 42 39 42 45 48 49 47 44 42 42 42 42 40 36 35 36 37 36 37 38 36 33 33 33 30 28 29 28 26 24 23 23 22 21 20 20 21 19 16 14 14 14 12 11 12 13 13 13 13 12 12 11 10 9 10 10 9 9
63 64 67 70 69 66 65 66 67 67 67 67 70 76 76 70 74 84 84 80 82 79 70 67 66 62 59 57 55 52 47 43 43 46 47 49 49 46 44 44 44 44 41 37 36 38 38 37 37 36 34 32 31 31 30 31 31 30 29 27 25 24 24 23 22 22 21 19 16 15 17 16 12 10 11 12 13 13 12 12 12 11 9 8 9 10 10 9
65 66 70 74 73 71 71 72 73 72 70 72 74 77 80 79 77 84 88 86 88 87 80 77 75 70 65 61 59 59 55 49 47 48 48 50 51 49 47 46 45 44 43 41 40 40 39 40 39 35 33 33 31 30 30 31 32 31 30 28 26 25 24 24 23 22 21 21 18 16 17 16 13 11 10 10 11 11 10 11 10 9 8 8 9 9 9 9
68 68 70 75 75 73 74 73 74 74 71 74 79 79 81 82 79 84 88 88 90 90 85 83 82 78 75 71 65 62 60 56 53 51 49 49 50 51 51 50 48 46 45 44 43 41 41 41 39 34 33 33 31 30 30 30 30 30 29 28 27 26 25 24 24 23 23 24 21 17 17 16 14 13 13 12 12 12 11 11 10 8 8 9 9 9 8 9
68 69 71 75 75 73 74 74 73 74 73 75 81 81 80 79 78 80 82 85 91 93 88 87 86 83 81 78 72 66 61 57 52 49 47 46 47 49 51 51 49 48 47 46 45 44 42 40 36 34 34 33 31 30 29 29 29 29 28 27 26 26 25 25 24 24 24 25 23 21 20 17 14 14 14 13 14 13 13 13 11 9 9 9 10 9 9 9
66 69 72 76 75 73 75 75 73 74 74 74 78 81 79 78 78 79 78 79 86 93 91 89 87 85 83 80 76 70 64 59 54 50 47 44 42 44 47 48 48 47 48 47 46 45 43 39 37 36 36 34 32 31 29 29 30 29 27 27 26 26 26 25 24 23 23 24 24 24 22 18 15 15 15 14 14 13 13 13 12 11 11 10 9 9 9 9